Flag for U.S.A. Weather past 2 weeks in Midland, Texas, U.S.A.

Now
90 °F

Sunny.


Feels Like: 87 °F
Forecast: 75 / 100 °F
Wind: 13 mph from South

Location: Midland - Midland Airpark

Current Time: Jul 30, 2014 at 11:37:45 AM

Latest Report: Jul 30, 2014 at 10:55 AM


Visibility: 10 mi

Pressure: 30.03 "Hg

Humidity: 29%

Dew point: 54 °F

Location of MidlandLocation

Historic Weather in Midland — Graph

°F

Midland temperature yesterday

Maximum temperature yesterday: 97 °F (at 4:35 PM)
Minimum temperature yesterday: 73 °F (at 6:55 AM)
Average temperature yesterday: 84 °F

Past Weeks' High & Low Weather Summary

 TemperatureHumidityPressure
High101 °F (Jul 26, 4:35 PM)91% (Jul 17, 10:35 AM)30.25 "Hg (Jul 17, 10:35 AM)
Low68 °F (Jul 18, 5:35 AM)18% (Jul 24, 7:15 PM)29.88 "Hg (Jul 16, 6:55 PM)
Average84 °F49%30.07 "Hg
* Reported Jul 15 10:30 AM — Jul 30 10:15 AM, Midland, Weather by CustomWeather, © 2014

Note: Actual official high and low records may vary slightly from our data, if they occured in-between our weather recording intervals... More about our weather records

Advertising

Midland weather history for previous 24 hours

 ConditionsComfort  
Time TempWeatherWind HumidityBarometerVisibility
10:15 AM
Jul 30
86 °FSunny.16 mph33%30.04 "Hg10 mi
9:55 AM85 °FSunny.15 mph36%30.03 "Hg10 mi
9:35 AM84 °FSunny.12 mph39%30.04 "Hg10 mi
9:15 AM82 °FSunny.14 mph43%30.04 "Hg10 mi
8:55 AM80 °FSunny.10 mph43%30.04 "Hg10 mi
8:35 AM79 °FSunny.9 mph42%30.03 "Hg10 mi
8:15 AM78 °FSunny.9 mph42%30.04 "Hg10 mi
7:55 AM78 °FClear.8 mph42%30.04 "Hg10 mi
7:35 AM77 °FClear.7 mph41%30.04 "Hg10 mi
7:15 AM77 °FClear.7 mph41%30.04 "Hg10 mi
6:55 AM77 °FClear.7 mph41%30.04 "Hg10 mi
6:35 AM77 °FClear.8 mph41%30.04 "Hg10 mi
6:15 AM77 °FClear.9 mph40%30.04 "Hg10 mi
5:55 AM77 °FClear.9 mph40%30.04 "Hg10 mi
5:35 AM77 °FClear.9 mph40%30.04 "Hg10 mi
5:15 AM77 °FClear.9 mph43%30.04 "Hg10 mi
4:55 AM77 °FClear.8 mph46%30.04 "Hg10 mi
4:35 AM77 °FClear.9 mph48%30.05 "Hg10 mi
4:15 AM78 °FClear.8 mph49%30.05 "Hg10 mi
3:55 AM78 °FClear.8 mph53%30.05 "Hg10 mi
3:35 AM78 °FClear.9 mph54%30.05 "Hg10 mi
3:15 AM78 °FClear.7 mph54%30.07 "Hg10 mi
2:55 AM79 °FClear.8 mph53%30.07 "Hg10 mi
2:35 AM79 °FClear.8 mph57%30.07 "Hg10 mi
2:15 AM79 °FClear.8 mph58%30.07 "Hg10 mi
1:55 AM80 °FClear.9 mph58%30.07 "Hg10 mi
1:35 AM80 °FClear.10 mph60%30.07 "Hg10 mi
1:15 AM80 °FClear.13 mph60%30.07 "Hg10 mi
12:55 AM80 °FClear.10 mph62%30.07 "Hg10 mi
12:35 AM79 °FClear.10 mph63%30.09 "Hg10 mi
12:15 AM79 °FClear.9 mph63%30.09 "Hg10 mi
11:55 PM
Jul 29
79 °FClear.13 mph63%30.10 "Hg10 mi
11:35 PM79 °FClear.10 mph63%30.10 "Hg10 mi
11:15 PM79 °FClear.12 mph63%30.10 "Hg10 mi
10:55 PM79 °FClear.12 mph61%30.09 "Hg10 mi
10:35 PM80 °FClear.14 mph60%30.09 "Hg10 mi
10:15 PM80 °FClear.12 mph58%30.09 "Hg10 mi
9:55 PM81 °FClear.17 mph58%30.08 "Hg10 mi
9:15 PM82 °FSunny.10 mph55%30.06 "Hg10 mi
8:55 PM83 °FScattered clouds.16 mph54%30.07 "Hg10 mi
8:35 PM84 °FPartly sunny.13 mph52%30.06 "Hg10 mi
8:15 PM85 °FPartly sunny.15 mph50%30.05 "Hg10 mi
7:55 PM87 °FPartly sunny.20 mph46%30.04 "Hg10 mi
7:15 PM96 °FPartly sunny.7 mph21%30.04 "Hg10 mi
6:55 PM96 °FScattered clouds.10 mph20%30.04 "Hg10 mi
6:35 PM96 °FScattered clouds.10 mph21%30.04 "Hg10 mi
6:15 PM96 °FSunny.8 mph22%30.04 "Hg10 mi
5:55 PM96 °FSunny.9 mph20%30.04 "Hg10 mi
5:35 PM96 °FSunny.6 mph21%30.04 "Hg10 mi
5:15 PM97 °FSunny.12 mph21%30.06 "Hg10 mi
4:55 PM97 °FScattered clouds.8 mph21%30.07 "Hg10 mi
4:35 PM97 °FScattered clouds.9 mph22%30.08 "Hg10 mi
4:15 PM97 °FSunny.5 mph22%30.09 "Hg10 mi
3:55 PM95 °FScattered clouds.10 mph24%30.10 "Hg10 mi
3:35 PM96 °FScattered clouds.7 mph25%30.11 "Hg10 mi
3:15 PM96 °FBroken clouds.8 mph25%30.12 "Hg10 mi
2:55 PM93 °FScattered clouds.6 mph27%30.13 "Hg10 mi
2:35 PM94 °FScattered clouds.8 mph27%30.13 "Hg10 mi
2:15 PM93 °FBroken clouds.9 mph28%30.14 "Hg10 mi
1:55 PM95 °FScattered clouds.9 mph27%30.15 "Hg10 mi
1:35 PM92 °FScattered clouds.3 mph30%30.16 "Hg10 mi
1:15 PM92 °FScattered clouds.7 mph30%30.16 "Hg10 mi
12:55 PM91 °FSunny.No wind32%30.17 "Hg10 mi
12:35 PM91 °FSunny.3 mph32%30.18 "Hg10 mi
12:15 PM90 °FSunny.10 mph34%30.19 "Hg10 mi
11:55 AM89 °FSunny.7 mph40%30.19 "Hg10 mi
11:35 AM88 °FSunny.8 mph43%30.20 "Hg7 mi
11:15 AM86 °FSunny.6 mph46%30.20 "Hg7 mi
Weather by CustomWeather, © 2014

See weather overviewHow to use our weather pages